"AMBIENT TEMP","AMBIENT HUMIDITY","SOIL NITROGEN","SOIL PHOSPHORUS","SOIL POTASSIUM","SOIL TEMPERATURE","SOIL MOISTURE","SOIL PH",DATE,TIME
30.3,99.9,5,8,16,29.07,31.76,6.01,2024-4-24,09:55:29
33.1,95.0,6,8,17,29.38,31.57,5.97,2024-4-24,10:56:33
32.9,94.9,5,8,16,29.49,31.32,5.93,2024-4-24,11:57:36
31.6,99.9,8,12,25,29.36,35.44,6.04,2024-4-24,12:58:38
30.6,99.9,8,12,25,29.44,34.34,6.04,2024-4-24,13:59:42
0.0,0.0,8,12,25,29.6,33.32,6.04,2024-4-24,15:00:55
31.2,99.9,8,11,24,29.56,32.9,6.03,2024-4-24,16:01:57
32.2,98.4,8,11,24,29.62,32.52,6.03,2024-4-24,17:03:01
28.8,99.9,8,11,24,29.49,32.3,6.02,2024-4-24,18:04:05
31.5,99.9,7,9,19,28.96,32.25,5.96,2024-4-25,10:10:55
33.1,95.2,6,9,19,29.19,31.91,5.94,2024-4-25,11:11:57
0.0,0.0,6,9,18,29.49,31.56,5.88,2024-4-25,12:13:10
31.7,99.3,6,9,18,29.6,31.93,5.86,2024-4-25,13:14:13
31.8,99.4,6,9,18,29.5,31.69,5.89,2024-4-25,14:15:15
27.3,99.9,10,14,29,28.96,38.3,6.93,2024-4-25,15:16:18
32.3,99.9,10,14,29,29.01,34.95,6.74,2024-4-25,16:17:21
30.3,99.9,10,14,28,29.26,33.89,6.59,2024-4-25,17:18:24
31.5,99.9,8,12,24,28.75,33.79,6.3,2024-4-27,09:54:36
31.0,99.9,8,11,24,28.96,33.22,6.28,2024-4-27,10:55:39
0.0,0.0,8,12,24,29.19,32.66,6.28,2024-4-27,11:56:53
32.7,99.9,8,11,23,29.28,32.48,6.27,2024-4-27,12:57:57
0.0,0.0,8,11,23,29.49,32.21,6.25,2024-4-27,13:59:12
25.9,99.9,9,12,26,29.07,39.12,6.85,2024-4-27,15:00:17
27.6,99.9,8,12,24,28.85,34.71,6.63,2024-4-27,16:01:22
31.5,99.9,8,12,24,29.0,33.81,6.58,2024-4-27,17:02:27
31.0,99.9,8,12,24,29.17,33.3,6.53,2024-4-27,18:03:29
30.2,99.9,7,10,22,28.64,34.47,6.33,2024-4-28,09:20:13
31.8,99.9,8,11,22,28.96,33.65,6.31,2024-4-28,10:21:16
31.6,99.9,8,11,22,29.07,33.05,6.31,2024-4-28,11:22:19
0.0,0.0,7,11,22,29.28,32.62,6.29,2024-4-28,12:23:33
0.0,0.0,7,10,22,29.49,34.34,6.29,2024-4-28,13:24:46
0.0,0.0,7,10,22,29.49,33.29,6.27,2024-4-28,14:25:59
0.0,0.0,7,10,21,29.53,32.7,6.25,2024-4-28,15:27:12
0.0,0.0,7,10,20,29.52,32.11,6.23,2024-4-28,16:28:26
0.0,0.0,7,10,20,29.44,31.72,6.23,2024-4-28,17:29:38
31.5,94.5,7,9,20,29.37,31.49,6.21,2024-4-28,18:30:41
30.4,98.3,6,9,19,29.24,31.34,6.2,2024-4-28,19:31:44
30.2,97.9,6,9,19,29.17,31.23,6.19,2024-4-28,20:32:47
29.5,99.9,6,9,19,29.07,31.15,6.19,2024-4-28,21:33:53
33.5,90.7,6,8,16,29.27,30.8,6.06,2024-4-29,11:03:02
0.0,0.0,5,8,16,29.28,30.51,6.04,2024-4-29,12:04:16
0.0,0.0,5,7,15,29.28,32.09,6.04,2024-4-29,13:05:29
0.0,0.0,5,7,15,29.39,31.89,6.04,2024-4-29,14:06:41
0.0,0.0,5,7,14,29.49,31.34,6.01,2024-4-29,15:07:53
0.0,0.0,5,7,14,29.49,30.82,6.0,2024-4-29,16:09:07
0.0,0.0,5,7,14,29.49,30.29,6.0,2024-4-29,17:10:21
31.9,94.2,4,6,13,29.33,29.94,6.0,2024-4-29,18:11:23
30.9,97.2,4,6,13,29.28,29.76,6.01,2024-4-29,19:12:27
29.4,99.9,4,6,13,29.28,29.6,6.01,2024-4-29,20:13:30
30.2,99.9,4,6,13,29.28,29.48,6.0,2024-4-29,21:14:33
33.0,97.8,4,5,11,29.31,30.24,5.92,2024-4-30,10:44:46
0.0,0.0,4,5,11,29.41,29.97,5.9,2024-4-30,11:45:59
0.0,0.0,4,5,11,29.49,30.44,5.88,2024-4-30,12:47:32
0.0,0.0,3,5,11,29.71,30.74,5.82,2024-4-30,13:48:45
0.0,0.0,3,5,10,29.86,30.49,5.78,2024-4-30,14:49:57
0.0,0.0,3,5,10,29.91,30.11,5.76,2024-4-30,15:51:10
0.0,0.0,3,5,10,29.95,29.64,5.74,2024-4-30,16:52:22
0.0,0.0,3,5,10,30.03,29.17,5.71,2024-4-30,17:53:36
